Regional Weather Roundup
Issued by NWS Goodland, KS

Home | Current Version | Previous Version | Text Only | Print | Product List | Glossary On
Versions: 1 2 3 4 5 6 7 8 9 10 11 12 13 14 15 16 17 18 19 20 21 22 23 24 25 26 27 28 29 30 31 32 33 34 35 36 37 38 39 40 41 42 43 44 45 46 47 48 49 50
000
ASUS43 KGLD 271708
RWRGLD

GOODLAND FORECAST AREA HOURLY WEATHER ROUNDUP
NATIONAL WEATHER SERVICE GOODLAND KS
1100 AM MDT SAT AUG 27 2016

...OFFICIAL OBSERVATIONS...

CITY           SKY/WX    TMP DP  RH WIND       PRES   REMARKS
GOODLAND KS    CLOUDY    63  58  83 CALM      30.09F
HILL CITY KS   SUNNY     75  64  68 VRB6      30.05F
IMPERIAL NEB   SUNNY     69  61  75 S13       30.07F
MCCOOK NEB     SUNNY     74  60  61 S8        30.05S
AKRON CO       SUNNY     71  52  50 CALM      30.11F
BURLINGTON CO  MOSUNNY   67  57  70 E7        30.11F
LIMON CO       MOSUNNY   78  46  32 MISG      30.13F
$$

...UNOFFICIAL OBSERVATIONS...

CITY           SKY/WX    TMP DP  RH WIND       PRES   REMARKS
LENORA KS        N/A     74  32  21 MISG        N/A
NORTON KS      SUNNY     75  57  53 SE7       30.04F
SHARON SPRINGS   N/A     69  64  84 NE5G12      N/A
TRENTON NEB      N/A     72  32  23 MISG        N/A
KIT CARSON CO    N/A     75  59  57 MISG        N/A
YUMA CO          N/A     59  58  97 CALM        N/A
$$




USA.gov is the U.S. government's official web portal to all federal, state and local government web resources and services.